Kokomo, IN

11:44 PM EDT on September 24, 2017 (GMT -0400)
Kokomo Municipal

Weather History for KOKK - January, 2012

Change the Weather History Date:

Tuesday, January 3, 2012

  Actual Average (KGUS) Record (KGUS)
Temperature  
Mean Temperature 20 °F -  
Max Temperature 24 °F 32 °F 57 °F (1997)
Min Temperature 15 °F 21 °F -11 °F (2014)
Degree Days  
Heating Degree Days 46    
Moisture  
Dew Point 6 °F    
Average Humidity 53    
Maximum Humidity 58    
Minimum Humidity 43    
Precipitation  
Precipitation 0.00 in - - ()
Sea Level Pressure  
Sea Level Pressure 30.31 in    
Wind  
Wind Speed 14 mph (West)    
Max Wind Speed 20 mph    
Max Gust Speed 25 mph    
Visibility 10 miles    
Events      
Averages and records for this station are not official NWS values.
T = Trace of Precipitation, MM = Missing Value Source: NWS Daily Summary

Daily Weather History Graph

Daily Weather History Graph

Search for Another Location

Airport or City:

Trip Planner

Search our weather history database for the weather conditions in past years. The results will help you decide how hot, cold, wet, or windy it might be!

Date:

Astronomy

Jan. 03, 2012 Rise Set
Actual Time 7:07 AM CST 4:29 PM CST
Civil Twilight 6:37 AM CST 5:00 PM CST
Nautical Twilight 6:03 AM CST 5:34 PM CST
Astronomical Twilight 5:29 AM CST 6:07 PM CST
Moon 12:17 PM CST (1/3) 1:57 AM CST (1/3)
Length of Visible Light 10h 22m
Length of Day
9h 21m
Waxing Gibbous, 73% of the Moon is Illuminated
Jan 3
Waxing Gibbous
Jan 9
Full
Jan 16
Last Quarter
Jan 23
New
Jan 30
First Quarter

Hourly Weather History & Observations

Time (CST) Temp. Windchill Dew Point Humidity Pressure Visibility Wind Dir Wind Speed Gust Speed Precip Events Conditions
12:15 AM 19.4 °F 4.5 °F 5.0 °F 54% 30.27 in 10.0 mi NW 17.3 mph 25.3 mph N/A   Partly Cloudy
12:35 AM 19.4 °F 4.5 °F 5.0 °F 54% 30.27 in 10.0 mi WNW 17.3 mph 23.0 mph N/A   Partly Cloudy
12:55 AM 19.4 °F 3.6 °F 6.8 °F 58% 30.28 in 10.0 mi NW 19.6 mph 23.0 mph N/A   Partly Cloudy
1:15 AM 19.4 °F 4.1 °F 5.0 °F 54% 30.29 in 10.0 mi NW 18.4 mph 25.3 mph N/A   Scattered Clouds
1:35 AM 19.4 °F 5.0 °F 6.8 °F 58% 30.30 in 9.0 mi NW 16.1 mph 21.9 mph N/A   Mostly Cloudy
1:55 AM 19.4 °F 4.5 °F 6.8 °F 58% 30.30 in 10.0 mi NW 17.3 mph 25.3 mph N/A   Overcast
2:15 AM 17.6 °F 1.7 °F 5.0 °F 58% 30.31 in 10.0 mi WNW 18.4 mph 24.2 mph N/A   Mostly Cloudy
2:35 AM 17.6 °F 2.7 °F 3.2 °F 53% 30.32 in 10.0 mi WNW 16.1 mph - N/A   Partly Cloudy
2:55 AM 17.6 °F 3.7 °F 5.0 °F 58% 30.31 in 10.0 mi WNW 13.8 mph - N/A   Scattered Clouds
3:15 AM 17.6 °F 1.7 °F 5.0 °F 58% 30.31 in 10.0 mi NW 18.4 mph - N/A   Mostly Cloudy
3:35 AM 17.6 °F 3.2 °F 3.2 °F 53% 30.32 in 10.0 mi NW 15.0 mph 20.7 mph N/A   Scattered Clouds
4:15 AM 17.6 °F 4.3 °F 3.2 °F 53% 30.32 in 10.0 mi WNW 12.7 mph 19.6 mph N/A   Clear
4:35 AM 15.8 °F 3.4 °F 3.2 °F 58% 30.30 in 10.0 mi WNW 10.4 mph - N/A   Clear
4:55 AM 15.8 °F 2.7 °F 1.4 °F 53% 30.30 in 10.0 mi WNW 11.5 mph - N/A   Clear
5:15 AM 15.8 °F 2.7 °F 1.4 °F 53% 30.31 in 10.0 mi WNW 11.5 mph - N/A   Clear
5:35 AM 15.8 °F 3.4 °F 3.2 °F 58% 30.32 in 10.0 mi WNW 10.4 mph - N/A   Clear
5:55 AM 15.8 °F 2.7 °F 3.2 °F 58% 30.32 in 10.0 mi WNW 11.5 mph - N/A   Partly Cloudy
6:15 AM 15.8 °F 3.4 °F 3.2 °F 58% 30.32 in 10.0 mi West 10.4 mph - N/A   Partly Cloudy
6:55 AM 15.8 °F 3.4 °F 3.2 °F 58% 30.34 in 10.0 mi WNW 10.4 mph - N/A   Clear
7:15 AM 15.8 °F 3.4 °F 3.2 °F 58% 30.34 in 10.0 mi WNW 10.4 mph - N/A   Clear
7:35 AM 15.8 °F 3.4 °F 3.2 °F 58% 30.34 in 10.0 mi WNW 10.4 mph - N/A   Clear
7:55 AM 15.8 °F 2.7 °F 3.2 °F 58% 30.35 in 10.0 mi WNW 11.5 mph - N/A   Clear
8:15 AM 15.8 °F 2.1 °F 3.2 °F 58% 30.37 in 10.0 mi WNW 12.7 mph - N/A   Clear
8:35 AM 17.6 °F 3.7 °F 3.2 °F 53% 30.37 in 10.0 mi WNW 13.8 mph - N/A   Clear
8:55 AM 17.6 °F 3.7 °F 5.0 °F 58% 30.38 in 10.0 mi WNW 13.8 mph - N/A   Clear
9:15 AM 17.6 °F 3.2 °F 5.0 °F 58% 30.39 in 10.0 mi WNW 15.0 mph - N/A   Clear
9:35 AM 19.4 °F 7.2 °F 6.8 °F 58% 30.38 in 10.0 mi WNW 11.5 mph - N/A   Clear
9:55 AM 19.4 °F 6.6 °F 6.8 °F 58% 30.39 in 10.0 mi West 12.7 mph - N/A   Clear
10:15 AM 21.2 °F 8.9 °F 6.8 °F 54% 30.39 in 10.0 mi West 12.7 mph - N/A   Clear
10:35 AM 21.2 °F 9.5 °F 6.8 °F 54% 30.39 in 10.0 mi West 11.5 mph - N/A   Clear
10:55 AM 23.0 °F 11.1 °F 8.6 °F 54% 30.38 in 10.0 mi West 12.7 mph - N/A   Clear
11:15 AM 23.0 °F 11.1 °F 8.6 °F 54% 30.37 in 10.0 mi WNW 12.7 mph 17.3 mph N/A   Clear
11:35 AM 23.0 °F 11.7 °F 8.6 °F 54% 30.36 in 10.0 mi WNW 11.5 mph - N/A   Clear
11:55 AM 23.0 °F 11.7 °F 8.6 °F 54% 30.35 in 10.0 mi West 11.5 mph - N/A   Clear
12:15 PM 24.8 °F 14.0 °F 6.8 °F 46% 30.34 in 10.0 mi West 11.5 mph - N/A   Clear
12:55 PM 24.8 °F 13.4 °F 6.8 °F 46% 30.32 in 10.0 mi WNW 12.7 mph - N/A   Clear
1:15 PM 24.8 °F 14.6 °F 6.8 °F 46% 30.31 in 10.0 mi WSW 10.4 mph - N/A   Clear
1:35 PM 24.8 °F 13.4 °F 6.8 °F 46% 30.31 in 10.0 mi WSW 12.7 mph - N/A   Clear
1:55 PM 24.8 °F 14.6 °F 6.8 °F 46% 30.30 in 10.0 mi West 10.4 mph - N/A   Clear
2:15 PM 24.8 °F 14.6 °F 5.0 °F 43% 30.29 in 10.0 mi West 10.4 mph - N/A   Clear
2:55 PM 24.8 °F 14.6 °F 6.8 °F 46% 30.29 in 10.0 mi West 10.4 mph - N/A   Clear
3:15 PM 24.8 °F 16.9 °F 5.0 °F 43% 30.30 in 10.0 mi WSW 6.9 mph - N/A   Clear
3:35 PM 24.8 °F 14.6 °F 6.8 °F 46% 30.30 in 10.0 mi West 10.4 mph - N/A   Clear
3:55 PM 24.8 °F 15.3 °F 6.8 °F 46% 30.29 in 10.0 mi West 9.2 mph - N/A   Clear
4:15 PM 24.8 °F 16.9 °F 5.0 °F 43% 30.28 in 10.0 mi WSW 6.9 mph - N/A   Clear
4:35 PM 23.0 °F 13.9 °F 6.8 °F 50% 30.28 in 10.0 mi SW 8.1 mph - N/A   Clear
4:55 PM 21.2 °F 12.6 °F 5.0 °F 50% 30.28 in 10.0 mi SW 6.9 mph - N/A   Clear
5:15 PM 21.2 °F 12.6 °F 6.8 °F 54% 30.28 in 10.0 mi SSW 6.9 mph - N/A   Clear
5:35 PM 21.2 °F 12.6 °F 6.8 °F 54% 30.26 in 10.0 mi SSW 6.9 mph - N/A   Clear
5:55 PM 21.2 °F 12.6 °F 6.8 °F 54% 30.26 in 10.0 mi South 6.9 mph - N/A   Clear
6:15 PM 21.2 °F 12.6 °F 6.8 °F 54% 30.25 in 10.0 mi South 6.9 mph - N/A   Clear
6:35 PM 21.2 °F 11.7 °F 6.8 °F 54% 30.25 in 10.0 mi South 8.1 mph - N/A   Clear
6:55 PM 21.2 °F 12.6 °F 6.8 °F 54% 30.24 in 10.0 mi South 6.9 mph - N/A   Clear
7:15 PM 21.2 °F 10.9 °F 6.8 °F 54% 30.23 in 10.0 mi South 9.2 mph - N/A   Clear
7:35 PM 21.2 °F 9.5 °F 6.8 °F 54% 30.21 in 10.0 mi South 11.5 mph - N/A   Clear
8:15 PM 21.2 °F 8.9 °F 6.8 °F 54% 30.19 in 10.0 mi South 12.7 mph - N/A   Clear
8:35 PM 23.0 °F 10.6 °F 6.8 °F 50% 30.18 in 10.0 mi SSW 13.8 mph - N/A   Clear
9:15 PM 21.2 °F 7.8 °F 6.8 °F 54% 30.14 in 10.0 mi SSW 15.0 mph - N/A   Clear
9:35 PM 23.0 °F 9.6 °F 8.6 °F 54% 30.14 in 10.0 mi SSW 16.1 mph 23.0 mph N/A   Clear
9:55 PM 23.0 °F 9.6 °F 8.6 °F 54% 30.15 in 10.0 mi SSW 16.1 mph 21.9 mph N/A   Clear
10:15 PM 23.0 °F 10.1 °F 8.6 °F 54% 30.15 in 10.0 mi SSW 15.0 mph 18.4 mph N/A   Clear
10:35 PM 23.0 °F 10.6 °F 8.6 °F 54% 30.14 in 10.0 mi SSW 13.8 mph 18.4 mph N/A   Clear
10:55 PM 24.8 °F 13.4 °F 8.6 °F 50% 30.15 in 10.0 mi SSW 12.7 mph 17.3 mph N/A   Clear
11:15 PM 24.8 °F 14.6 °F 8.6 °F 50% 30.15 in 10.0 mi SSW 10.4 mph - N/A   Clear
11:35 PM 24.8 °F 15.3 °F 8.6 °F 50% 30.15 in 10.0 mi SSW 9.2 mph - N/A   Clear
11:55 PM 24.8 °F 14.6 °F 6.8 °F 46% 30.14 in 10.0 mi SSW 10.4 mph - N/A   Clear